Location: Chakepay
(13.3931°S, 72.1925°W)
Time: 22:28:40
(UTC+00:00)

deb Centaur AC-2 - Pass Details

Date: 15 November 2019
Orbit: 585 x 1364 km, 30.0° (Epoch: 10 December)

Event Time Altitude Azimuth Distance (km) Brightness Sun altitude
Exits shadow 08:26:41 77° 189° (S) 616 3.9 -24.3°
Drops below altitude 10° 08:31:13 10° 122° (ESE) 2,042 7.8 -23.3°
Sets 08:33:44 0° 120° (ESE) 3,041 9.1 -22.7°
